Location: Banff
(51.1667°N, 115.5667°W)
Time: 14:09:33
(UTC+00:00)

Altair - Pass Details

Date: 02 December 2020
Orbit: 1501 x 1682 km, 47.2° (Epoch: 14 January)

Event Time Altitude Azimuth Distance (km) Brightness Sun altitude
Rises 01:13:42 0° 179° (S) 4,759 10.3 -14.3°
Reaches altitude 10° 01:18:34 10° 159° (SSE) 3,742 9.5 -15.0°
Maximum altitude 01:23:20 15° 127° (SE) 3,317 8.9 -15.7°
Enters shadow 01:26:04 13° 108° (ESE) 3,441 8.8 -16.1°
